Le nostre stazioni meteo in Italia

Pubblicità
Il mio iltempo24.it
Kleine Brogel, Belgio (6479): Temperatura & dewpoint: 14.02.2017 16:00:00 - 20.02.2017 16:00:00 (CET)Kleine Brogel, Belgio (6479): velocità del vento & gusts: 14.02.2017 16:00:00 - 20.02.2017 16:00:00 (CET)Kleine Brogel, Belgio (6479): direzione del vento: 14.02.2017 16:00:00 - 20.02.2017 16:00:00 (CET)Kleine Brogel, Belgio (6479): reduced air pressure: 14.02.2017 16:00:00 - 20.02.2017 16:00:00 (CET)Kleine Brogel, Belgio (6479): visibility: 14.02.2017 16:00:00 - 20.02.2017 16:00:00 (CET)Kleine Brogel, Belgio (6479): precipitazioni: 14.02.2017 16:00:00 - 20.02.2017 16:00:00 (CET)
Data & Tempo tt [°C] td [°C] ff [km/h] ff [kn] fx [km/h] fx [kn] dd ppp [hPa] vv [km] rr [mm]
20.02.2017 16:00:00 9,8 9,3 18 10 - - SO 1016,0 3,0 -
20.02.2017 15:00:00 9,6 9,1 22 12 32 18 SO 1016,5 3,0 -
20.02.2017 14:00:00 9,3 8,9 22 12 36 19 SO 1017,1 1,5 -
20.02.2017 13:00:00 9,1 8,6 22 12 - - SO 1017,8 2,5 -
20.02.2017 12:00:00 8,8 8,3 25 14 36 19 SO 1018,3 3,0 -
20.02.2017 11:00:00 8,5 8,0 22 12 32 18 SO 1018,8 3,0 -
20.02.2017 10:00:00 8,1 7,7 22 12 - - SO 1019,0 2,5 -
20.02.2017 09:00:00 7,8 7,4 18 10 29 16 SO 1019,2 2,2 -
20.02.2017 08:00:00 7,5 7,1 18 10 29 16 SO 1019,3 2,0 -
20.02.2017 07:00:00 7,4 7,1 18 10 - - SO 1019,2 3,0 -
20.02.2017 06:00:00 7,3 6,8 11 6 22 12 SSO 1020,0 3,0 -
20.02.2017 05:00:00 7,2 6,4 14 8 22 12 SO 1020,3 5 -
20.02.2017 04:00:00 7,0 5,8 11 6 - - SSO 1020,5 9 -
20.02.2017 03:00:00 7,3 6,3 14 8 22 12 SO 1021,2 3,3 -
20.02.2017 02:00:00 7,6 5,9 11 6 18 10 SO 1022,0 10 -
20.02.2017 01:00:00 7,4 6,1 11 6 - - SO 1022,3 7 0,8
20.02.2017 00:00:00 7,5 6,1 9 5 11 6 SSO 1022,3 6 -
19.02.2017 23:00:00 - - - - - - - - - -
19.02.2017 22:00:00 7,4 6,0 7 4 - - SO 1022,5 6 -
19.02.2017 21:00:00 - - - - - - - - - -
19.02.2017 20:00:00 - - - - - - - - - -
19.02.2017 19:00:00 7,6 6,1 11 6 - - OSO 1021,8 6 -
19.02.2017 18:00:00 8,0 5,4 9 5 18 10 OSO 1021,7 10 -
19.02.2017 17:00:00 8,0 5,3 14 8 25 14 OSO 1021,5 9 -
19.02.2017 16:00:00 7,8 4,9 14 8 - - OSO 1021,5 9 -
19.02.2017 15:00:00 7,8 4,8 18 10 25 14 OSO 1021,5 14 -
19.02.2017 14:00:00 7,0 4,6 13 7 22 12 SO 1021,8 10 -
19.02.2017 13:00:00 7,0 3,4 11 6 - - SO 1022,2 16 -
19.02.2017 12:00:00 6,8 3,4 14 8 25 14 SO 1022,7 14 -
19.02.2017 11:00:00 5,6 2,7 18 10 25 14 SO 1023,0 10 -
19.02.2017 10:00:00 4,5 2,0 14 8 - - SO 1023,2 9 -
19.02.2017 09:00:00 3,6 1,3 11 6 25 14 SO 1023,2 10 -
19.02.2017 08:00:00 2,3 0,5 14 8 22 12 SO 1023,2 9 -
19.02.2017 07:00:00 2,0 0,4 14 8 - - SO 1023,3 10 -
19.02.2017 06:00:00 1,8 0,5 11 6 22 12 SO 1023,8 8 -
19.02.2017 05:00:00 1,8 1,0 11 6 14 8 SSO 1024,0 6 -
19.02.2017 04:00:00 2,0 1,1 8 4 - - SSO 1024,2 7 -
19.02.2017 03:00:00 0,9 -0,1 7 4 11 6 - 1024,5 11 -
19.02.2017 02:00:00 1,5 0,0 4 2 7 4 - 1025,4 12 -
19.02.2017 01:00:00 2,7 0,4 4 2 - - - 1025,5 15 1,0
19.02.2017 00:00:00 2,8 -0,1 4 2 7 4 - 1025,7 18 -
18.02.2017 23:00:00 2,7 0,2 4 2 11 6 - 1025,7 18 -
18.02.2017 22:00:00 2,0 -0,2 7 4 - - S 1025,9 19 -
18.02.2017 21:00:00 3,7 0,2 4 2 11 6 - 1026,2 20 -
18.02.2017 20:00:00 3,8 0,4 4 2 11 6 - 1026,2 20 -
18.02.2017 19:00:00 3,5 0,7 4 2 - - - 1026,4 10 -
18.02.2017 18:00:00 6,5 1,3 4 2 11 6 - 1026,4 20 -
18.02.2017 17:00:00 8,8 0,5 7 4 11 6 SO 1026,4 20 -
18.02.2017 16:00:00 10,1 1,0 4 2 - - - 1026,7 20 -
18.02.2017 15:00:00 9,5 1,3 4 2 18 10 - 1027,0 20 -
18.02.2017 14:00:00 9,5 1,1 11 6 14 8 SO 1027,2 20 -
18.02.2017 13:00:00 9,7 2,4 4 2 - - - 1027,9 20 -
18.02.2017 12:00:00 7,6 5,8 4 2 7 4 - 1028,5 3,4 -
18.02.2017 11:00:00 6,5 6,0 4 2 7 4 - 1028,4 2,0 -
18.02.2017 10:00:00 5,6 5,6 4 2 - - - 1028,2 0,3 -
18.02.2017 09:00:00 5,0 5,0 4 2 4 2 - 1028,2 0,1 -
18.02.2017 08:00:00 4,5 4,5 4 2 7 4 - 1028,2 0,1 -
18.02.2017 07:00:00 4,5 4,4 4 2 - - - 1028,0 0,2 -
18.02.2017 06:00:00 4,5 4,5 4 2 7 4 - 1028,2 0,2 -
18.02.2017 05:00:00 4,9 4,8 4 2 7 4 - 1027,9 0,2 -
18.02.2017 04:00:00 5,0 5,0 4 2 - - - 1028,0 0,6 -
18.02.2017 03:00:00 5,1 4,9 4 2 4 2 - 1028,7 2,6 -
18.02.2017 02:00:00 5,1 4,7 4 2 4 2 - 1028,5 3,3 -
18.02.2017 01:00:00 5,6 5,0 4 2 - - - 1028,5 4,7 0,9
18.02.2017 00:00:00 6,0 5,2 4 2 7 4 - 1028,7 6 -
17.02.2017 23:00:00 6,5 5,3 4 2 11 6 - 1028,7 7 -
17.02.2017 22:00:00 6,5 5,3 4 2 - - - 1028,7 9 -
17.02.2017 21:00:00 6,8 5,4 4 2 11 6 - 1028,5 9 -
17.02.2017 20:00:00 7,4 5,6 5 3 11 6 O 1028,2 10 -
17.02.2017 19:00:00 7,5 5,6 8 4 - - O 1028,0 7 -
17.02.2017 18:00:00 8,1 5,5 7 4 14 8 O 1027,4 11 -
17.02.2017 17:00:00 8,6 5,5 7 4 18 10 O 1027,0 13 -
17.02.2017 16:00:00 9,4 5,7 11 6 - - O 1026,7 17 -
17.02.2017 15:00:00 8,8 6,0 11 6 22 12 O 1026,7 12 -
17.02.2017 14:00:00 8,5 6,3 11 6 22 12 O 1026,9 11 -
17.02.2017 13:00:00 7,9 6,2 7 4 - - ONO 1026,7 3,7 -
17.02.2017 12:00:00 7,3 6,4 11 6 22 12 O 1026,7 3,0 -
17.02.2017 11:00:00 6,9 6,0 11 6 22 12 O 1026,7 3,5 -
17.02.2017 10:00:00 6,5 6,0 11 6 - - O 1026,5 3,4 -
17.02.2017 09:00:00 6,4 5,6 16 9 22 12 OSO 1026,2 3,7 -
17.02.2017 08:00:00 6,1 5,3 14 8 25 14 OSO 1026,2 6 -
17.02.2017 07:00:00 5,5 4,9 11 6 - - SO 1026,0 9 -
17.02.2017 06:00:00 5,3 4,7 11 6 18 10 SO 1026,2 10 -
17.02.2017 05:00:00 5,4 4,9 11 6 25 14 SO 1026,4 4,1 -
17.02.2017 04:00:00 5,5 5,0 14 8 - - SO 1026,9 3,9 -
17.02.2017 03:00:00 5,1 4,6 7 4 14 8 SO 1027,2 2,8 -
17.02.2017 02:00:00 5,4 5,0 11 6 14 8 SO 1027,5 3,5 -
17.02.2017 01:00:00 5,5 4,8 11 6 - - SO 1027,7 3,6 1,3
17.02.2017 00:00:00 6,0 5,0 11 6 14 8 OSO 1028,2 5 -
16.02.2017 23:00:00 7,0 5,4 11 6 14 8 SO 1028,2 8 -
16.02.2017 22:00:00 7,0 5,1 11 6 - - OSO 1028,7 9 -
16.02.2017 21:00:00 6,5 5,2 9 5 14 8 OSO 1028,5 7 -
16.02.2017 20:00:00 5,8 4,4 7 4 7 4 OSO 1028,7 5 -
16.02.2017 19:00:00 7,5 5,4 2 1 - - - 1028,5 7 -
16.02.2017 18:00:00 10,0 3,9 4 2 14 8 - 1028,7 20 -
16.02.2017 17:00:00 11,3 3,5 7 4 29 16 O 1028,4 20 -
16.02.2017 16:00:00 12,1 2,9 14 8 - - O 1028,7 20 -
16.02.2017 15:00:00 12,8 4,1 18 10 29 16 OSO 1029,0 20 -
16.02.2017 14:00:00 12,4 4,5 14 8 25 14 OSO 1029,7 20 -
16.02.2017 13:00:00 11,0 5,6 14 8 - - OSO 1030,2 20 -
16.02.2017 12:00:00 10,6 6,7 18 10 25 14 OSO 1031,2 20 -
16.02.2017 11:00:00 9,3 7,2 11 6 14 8 SO 1031,2 9 -
16.02.2017 10:00:00 7,7 6,7 4 2 - - - 1031,5 3,0 -
16.02.2017 09:00:00 5,3 5,1 4 2 7 4 - 1031,5 2,5 -
16.02.2017 08:00:00 5,5 5,1 4 2 11 6 - 1031,5 5 -
16.02.2017 07:00:00 6,4 5,7 7 4 - - SO 1031,5 10 -
16.02.2017 06:00:00 5,6 5,0 4 2 11 6 - 1031,7 10 -
16.02.2017 05:00:00 6,6 5,5 4 2 7 4 - 1031,9 15 -
16.02.2017 04:00:00 6,8 5,2 4 2 - - - 1031,9 15 -
16.02.2017 03:00:00 7,3 5,4 4 2 11 6 - 1032,4 15 -
16.02.2017 02:00:00 6,1 4,4 4 2 7 4 - 1032,2 15 -
16.02.2017 01:00:00 8,8 5,4 9 5 - - OSO 1032,2 10 1,6
16.02.2017 00:00:00 10,2 5,4 11 6 18 10 SO 1032,0 20 -
15.02.2017 23:00:00 10,6 5,3 7 4 14 8 SSO 1031,7 20 -
15.02.2017 22:00:00 10,2 5,0 7 4 - - SSO 1031,7 20 -
15.02.2017 21:00:00 9,1 4,6 4 2 11 6 - 1031,7 20 -
15.02.2017 20:00:00 10,0 4,7 4 2 7 4 - 1031,7 20 -
15.02.2017 19:00:00 10,4 4,4 4 2 - - - 1031,7 20 -
15.02.2017 18:00:00 12,1 4,6 4 2 14 8 - 1031,4 20 -
15.02.2017 17:00:00 14,9 5,3 7 4 14 8 S 1031,2 20 -
15.02.2017 16:00:00 15,3 5,2 11 6 - - SSO 1031,5 20 -
15.02.2017 15:00:00 15,1 5,1 4 2 18 10 - 1031,4 20 -
15.02.2017 14:00:00 16,2 4,4 7 4 14 8 SSO 1031,9 20 -
15.02.2017 13:00:00 14,7 3,7 7 4 - - S 1032,4 20 -
15.02.2017 12:00:00 13,6 2,6 7 4 14 8 S 1033,0 20 -
15.02.2017 11:00:00 11,1 1,5 7 4 14 8 S 1033,4 15 -
15.02.2017 10:00:00 6,7 1,4 4 2 - - - 1033,5 12 -
15.02.2017 09:00:00 1,5 -0,2 4 2 7 4 - 1033,2 12 -
15.02.2017 08:00:00 0,4 -0,9 4 2 4 2 - 1032,9 12 -
15.02.2017 07:00:00 0,6 -1,0 4 2 - - - 1032,5 15 -
15.02.2017 06:00:00 0,8 -0,8 2 1 4 2 - 1032,7 10 -
15.02.2017 05:00:00 2,9 -0,4 4 2 4 2 - 1032,2 15 -
15.02.2017 04:00:00 4,3 -0,2 4 2 - - - 1032,0 15 -
15.02.2017 03:00:00 4,1 -0,2 7 4 11 6 SSO 1032,0 12 -
15.02.2017 02:00:00 4,4 0,3 4 2 7 4 - 1032,0 12 -
15.02.2017 01:00:00 1,9 0,0 4 2 - - - 1031,9 12 1,1
15.02.2017 00:00:00 2,4 -0,6 4 2 4 2 - 1031,7 12 -
14.02.2017 23:00:00 2,5 -0,9 4 2 7 4 - 1031,5 15 -
14.02.2017 22:00:00 4,1 -0,7 4 2 - - - 1031,2 15 -
14.02.2017 21:00:00 5,0 -0,6 4 2 7 4 - 1031,0 15 -
14.02.2017 20:00:00 5,5 -0,2 4 2 11 6 - 1031,2 15 -
14.02.2017 19:00:00 4,4 0,0 4 2 - - - 1030,9 15 -
14.02.2017 18:00:00 7,6 0,5 4 2 11 6 - 1030,2 20 -
14.02.2017 17:00:00 9,8 1,1 7 4 11 6 E 1029,9 20 -
14.02.2017 16:00:00 10,9 0,4 4 2 - - - 1029,7 20 -

tt = Temperatura
td = dewpoint
ff = velocità del vento
fx = gusts
dd = direzione del vento
ppp = reduced air pressure
vv = visibility
rr = precipitazioni

Stazioni seguenti

WeatherPro
AMSI
MeteoEarth